CW8164 Weather Reports


Display with metric or nautical units.
time (UTC)temp
F
wind
direction
speed
MPH
gust
MPH
rain 1hr
in
rain 24hr
in
rain mn
in
humidity
%
barometer
mb
20260831014403 70 222 0.0 2.0 0.00 0.00 0.00 55 1015.9
20260831013903 70 110 1.0 5.0 0.00 0.00 0.00 54 1016.0
20260831013402 71 241 0.0 5.0 0.00 0.00 0.00 53 1016.1
20260831012903 71 218 0.0 3.0 0.00 0.00 0.00 53 1016.1
20260831011403 71 0 1.0 3.0 0.00 0.00 0.00 52 1016.2
20260831010902 72 0 1.0 3.0 0.00 0.00 0.00 52 1016.3
20260831010402 72 0 1.0 7.0 0.00 0.00 0.00 51 1016.3
20260831005902 72 356 1.0 7.0 0.00 0.00 0.00 50 1016.3
20260831005403 73 0 1.0 7.0 0.00 0.00 0.00 49 1016.3
20260831004902 73 0 2.0 5.0 0.00 0.00 0.00 49 1016.4
20260831004402 74 0 2.0 5.0 0.00 0.00 0.00 48 1016.4
20260831003403 74 0 1.0 6.0 0.00 0.00 0.00 49 1016.5
20260831002902 74 0 2.0 5.0 0.00 0.00 0.00 48 1016.6
20260831002402 74 0 1.0 5.0 0.00 0.00 0.00 47 1016.6
20260831001902 74 0 2.0 6.0 0.00 0.00 0.00 47 1016.7
20260831001403 74 0 1.0 6.0 0.00 0.00 0.00 49 1016.6
20260831000903 74 0 0.0 8.0 0.00 0.00 0.00 49 1016.7
20260831000403 74 0 2.0 8.0 0.00 0.00 0.00 48 1016.6
20260830235902 74 0 1.0 9.0 0.00 0.00 0.00 48 1016.7
20260830235402 73 0 0.0 9.0 0.00 0.00 0.00 48 1016.7
20260830234903 73 0 3.0 8.0 0.00 0.00 0.00 48 1016.8
20260830234403 74 0 1.0 6.0 0.00 0.00 0.00 49 1016.8
20260830233902 74 0 2.0 9.0 0.00 0.00 0.00 48 1016.9
20260830233402 74 0 2.0 9.0 0.00 0.00 0.00 48 1016.9
20260830232902 74 0 3.0 12.0 0.00 0.00 0.00 47 1017.0
20260830232402 75 0 2.0 12.0 0.00 0.00 0.00 46 1017.1
20260830231903 75 0 1.0 5.0 0.00 0.00 0.00 47 1017.1
20260830231403 74 0 0.0 7.0 0.00 0.00 0.00 48 1017.1
20260830230902 74 0 2.0 7.0 0.00 0.00 0.00 46 1017.2
20260830230402 74 0 1.0 8.0 0.00 0.00 0.00 48 1017.2
20260830225902 74 0 4.0 8.0 0.00 0.00 0.00 46 1017.4
20260830225403 74 0 2.0 6.0 0.00 0.00 0.00 47 1017.4
20260830224903 74 344 1.0 8.0 0.00 0.00 0.00 46 1017.4
20260830224403 74 186 2.0 8.0 0.00 0.00 0.00 46 1017.5
20260830223903 74 237 2.0 6.0 0.00 0.00 0.00 47 1017.5
20260830223403 74 219 2.0 7.0 0.00 0.00 0.00 47 1017.8
20260830222902 73 219 2.0 7.0 0.00 0.00 0.00 49 1017.8
20260830221902 73 204 1.0 5.0 0.00 0.00 0.00 47 1018.0
20260830221403 73 97 2.0 6.0 0.00 0.00 0.00 47 1018.1
20260830220903 72 276 1.0 6.0 0.00 0.00 0.00 49 1018.2
20260830220402 72 195 2.0 6.0 0.00 0.00 0.00 48 1018.2
20260830215902 71 17 1.0 6.0 0.00 0.00 0.00 49 1018.3
20260830215403 72 29 3.0 7.0 0.00 0.00 0.00 49 1018.4
20260830214403 71 190 1.0 9.0 0.00 0.00 0.00 49 1018.5
20260830213903 71 19 4.0 9.0 0.00 0.00 0.00 49 1018.6
20260830213402 71 286 1.0 6.0 0.00 0.00 0.00 49 1018.6
20260830212903 71 232 1.0 8.0 0.00 0.00 0.00 50 1018.7
20260830212403 71 96 2.0 8.0 0.00 0.00 0.00 48 1018.8
20260830211903 71 355 1.0 6.0 0.00 0.00 0.00 52 1018.8
20260830211403 71 95 3.0 6.0 0.00 0.00 0.00 50 1018.9
20260830210903 70 225 2.0 7.0 0.00 0.00 0.00 51 1018.9
20260830210403 71 110 3.0 7.0 0.00 0.00 0.00 50 1019.0
20260830205902 71 243 2.0 9.0 0.00 0.01 0.00 51 1019.1
20260830205402 71 237 3.0 9.0 0.00 0.02 0.00 51 1019.1
20260830204902 70 188 2.0 7.0 0.00 0.02 0.00 51 1019.2
20260830203404 70 170 2.0 7.0 0.00 0.02 0.00 55 1019.5
20260830202902 69 255 1.0 6.0 0.00 0.02 0.00 53 1019.4
20260830202402 68 177 2.0 5.0 0.00 0.02 0.00 53 1019.5
20260830201402 68 44 2.0 6.0 0.00 0.02 0.00 53 1019.6
20260830200902 68 44 1.0 5.0 0.00 0.02 0.00 53 1019.7
20260830200402 68 294 1.0 3.0 0.00 0.02 0.00 54 1019.7
20260830195903 68 274 2.0 3.0 0.00 0.02 0.00 53 1019.8
20260830195402 68 234 1.0 6.0 0.00 0.02 0.00 55 1019.7
20260830194902 68 161 2.0 6.0 0.00 0.02 0.00 53 1019.8
20260830194403 68 270 2.0 6.0 0.00 0.02 0.00 55 1019.8
20260830193903 67 179 0.0 3.0 0.00 0.02 0.00 56 1019.9
20260830193403 67 9 0.0 6.0 0.00 0.02 0.00 56 1019.9
20260830192902 67 303 1.0 6.0 0.00 0.02 0.00 54 1020.0
20260830191902 67 24 1.0 3.0 0.00 0.02 0.00 56 1020.1
20260830191403 66 342 1.0 7.0 0.00 0.02 0.00 57 1020.1
20260830190403 66 261 1.0 3.0 0.00 0.02 0.00 56 1020.2
20260830185902 67 243 1.0 3.0 0.00 0.02 0.00 55 1020.2
20260830185402 66 304 2.0 3.0 0.00 0.02 0.00 56 1020.2
20260830184902 65 217 2.0 3.0 0.00 0.02 0.00 57 1020.4
20260830184402 65 193 1.0 5.0 0.00 0.02 0.00 58 1020.4
20260830183903 65 350 1.0 5.0 0.00 0.02 0.00 59 1020.4
20260830183403 66 226 1.0 3.0 0.00 0.02 0.00 57 1020.3
20260830182902 66 6 0.0 5.0 0.00 0.02 0.00 60 1020.3
20260830182403 66 282 0.0 5.0 0.00 0.02 0.00 62 1020.3
20260830181903 65 189 1.0 3.0 0.00 0.02 0.00 62 1020.5
20260830181403 65 94 1.0 3.0 0.00 0.02 0.00 63 1020.5
20260830180902 65 261 0.0 2.0 0.00 0.02 0.00 63 1020.4
20260830180403 64 349 0.0 3.0 0.00 0.02 0.00 64 1020.4
20260830175402 63 257 1.0 3.0 0.00 0.02 0.00 64 1020.4
20260830174903 64 282 0.0 3.0 0.00 0.02 0.00 65 1020.4
20260830174403 64 205 1.0 3.0 0.00 0.02 0.00 64 1020.4
20260830173402 63 317 0.0 5.0 0.00 0.02 0.00 65 1020.4
20260830172402 62 244 0.0 3.0 0.00 0.02 0.00 69 1020.5
20260830171902 63 260 0.0 3.0 0.00 0.02 0.00 69 1020.6
20260830171403 63 222 1.0 2.0 0.00 0.02 0.00 68 1020.5
20260830170902 63 144 0.0 2.0 0.00 0.02 0.00 70 1020.5
20260830170402 62 194 1.0 2.0 0.00 0.02 0.00 71 1020.6
20260830165904 61 132 0.0 2.0 0.00 0.02 0.00 73 1020.5
20260830165402 62 25 1.0 5.0 0.00 0.02 0.00 71 1020.5
20260830164402 62 239 1.0 5.0 0.00 0.02 0.00 75 1020.5
20260830163403 61 186 2.0 3.0 0.00 0.02 0.00 75 1020.6
20260830162902 61 218 0.0 2.0 0.00 0.02 0.00 78 1020.7
20260830162402 61 249 1.0 2.0 0.00 0.02 0.00 76 1020.7
20260830161903 61 75 0.0 2.0 0.00 0.02 0.00 77 1020.8
20260830161402 61 92 1.0 2.0 0.00 0.02 0.00 77 1020.8
20260830160902 60 120 0.0 2.0 0.00 0.02 0.00 78 1020.8
20260830160403 60 139 0.0 2.0 0.00 0.02 0.00 81 1020.9
20260830155903 59 184 0.0 2.0 0.00 0.02 0.00 82 1020.9
20260830155403 59 129 1.0 2.0 0.00 0.02 0.00 83 1020.9
20260830154403 58 18 0.0 2.0 0.00 0.02 0.00 84 1020.9
20260830153402 57 30 0.0 0.0 0.00 0.02 0.00 86 1021.0
20260830152902 56 25 0.0 0.0 0.00 0.02 0.00 87 1021.1
20260830152403 55 18 0.0 0.0 0.00 0.02 0.00 88 1021.1
20260830151903 54 32 0.0 2.0 0.00 0.02 0.00 89 1021.1
20260830150903 53 57 0.0 2.0 0.00 0.02 0.00 91 1021.0
20260830145903 51 76 0.0 0.0 0.00 0.02 0.00 94 1021.0
20260830145402 50 82 0.0 0.0 0.00 0.02 0.00 94 1021.1
20260830144902 50 77 0.0 0.0 0.00 0.02 0.00 94 1021.1
20260830142903 47 70 0.0 0.0 0.00 0.02 0.00 95 1021.0
20260830142403 47 70 0.0 0.0 0.00 0.02 0.00 95 1021.1
20260830141402 46 70 0.0 0.0 0.00 0.02 0.00 95 1020.9
20260830140403 45 70 0.0 0.0 0.00 0.02 0.00 94 1020.9
20260830135902 45 70 0.0 0.0 0.00 0.02 0.00 94 1020.9
20260830135402 45 70 0.0 0.0 0.00 0.02 0.00 94 1020.9
20260830134903 45 70 0.0 0.0 0.00 0.02 0.00 94 1020.9
20260830134402 45 70 0.0 0.0 0.00 0.02 0.00 93 1020.9
20260830133903 45 70 0.0 0.0 0.00 0.02 0.00 93 1020.9
20260830133403 46 70 0.0 0.0 0.00 0.02 0.00 93 1020.9
20260830132903 46 70 0.0 0.0 0.00 0.02 0.00 94 1020.9
20260830131902 46 70 0.0 0.0 0.00 0.02 0.00 94 1020.8
20260830131402 46 70 0.0 0.0 0.00 0.02 0.00 94 1020.8
20260830130902 46 70 0.0 0.0 0.00 0.02 0.00 94 1020.8
20260830130403 46 70 0.0 0.0 0.00 0.02 0.00 95 1020.6
20260830125902 46 70 0.0 0.0 0.00 0.02 0.00 95 1020.6
20260830125403 46 70 0.0 0.0 0.00 0.02 0.00 95 1020.6
20260830124903 46 75 0.0 0.0 0.00 0.02 0.00 95 1020.6
20260830124403 46 76 0.0 0.0 0.00 0.03 0.00 95 1020.6
20260830123903 45 76 0.0 0.0 0.00 0.03 0.00 95 1020.6
20260830122902 45 83 0.0 0.0 0.00 0.04 0.00 95 1020.5
20260830122403 44 96 0.0 0.0 0.00 0.04 0.00 94 1020.4
20260830121903 44 99 0.0 0.0 0.00 0.05 0.00 94 1020.5
20260830121404 44 99 0.0 0.0 0.00 0.05 0.00 94 1020.5
20260830120903 44 99 0.0 0.0 0.00 0.05 0.00 94 1020.5
20260830120403 44 99 0.0 0.0 0.00 0.05 0.00 93 1020.5
20260830115403 44 99 0.0 0.0 0.00 0.05 0.00 94 1020.5
20260830114402 44 99 0.0 0.0 0.00 0.05 0.00 93 1020.6
20260830113902 44 99 0.0 0.0 0.00 0.05 0.00 93 1020.6
20260830113402 44 99 0.0 0.0 0.00 0.05 0.00 94 1020.4
20260830112902 44 99 0.0 0.0 0.00 0.05 0.00 93 1020.4
20260830112403 44 99 0.0 0.0 0.00 0.05 0.00 93 1020.4
20260830111402 44 99 0.0 0.0 0.00 0.05 0.00 93 1020.4
20260830110403 45 99 0.0 0.0 0.00 0.05 0.00 94 1020.4
20260830105902 45 155 0.0 0.0 0.00 0.05 0.00 94 1020.4
20260830105403 44 156 0.0 0.0 0.00 0.05 0.00 93 1020.5
20260830104903 44 163 0.0 0.0 0.00 0.05 0.00 93 1020.4
20260830104403 45 163 0.0 0.0 0.00 0.05 0.00 93 1020.4
20260830103902 45 195 0.0 0.0 0.00 0.05 0.00 93 1020.4
20260830103403 45 195 0.0 0.0 0.00 0.05 0.00 93 1020.4
20260830102902 45 195 0.0 0.0 0.00 0.05 0.00 93 1020.3
20260830102402 45 195 0.0 0.0 0.00 0.05 0.00 93 1020.2
20260830101902 45 195 0.0 0.0 0.00 0.05 0.00 92 1020.2
20260830101403 45 195 0.0 0.0 0.00 0.05 0.00 92 1020.1
20260830100903 45 195 0.0 0.0 0.00 0.05 0.00 92 1020.1
20260830100402 45 195 0.0 0.0 0.00 0.05 0.00 92 1020.2
20260830095903 46 199 0.0 0.0 0.00 0.05 0.00 92 1020.2
20260830095403 46 199 0.0 0.0 0.00 0.05 0.00 92 1020.2
20260830094903 46 199 0.0 0.0 0.00 0.05 0.00 93 1020.2
20260830094403 46 199 0.0 0.0 0.00 0.05 0.00 93 1020.2
20260830093902 46 199 0.0 0.0 0.00 0.05 0.00 92 1020.1
20260830093403 46 199 0.0 0.0 0.00 0.05 0.00 92 1020.2
20260830092903 46 199 0.0 0.0 0.00 0.05 0.00 92 1020.1
20260830092402 46 199 0.0 0.0 0.00 0.05 0.00 92 1020.1
20260830091903 46 199 0.0 0.0 0.00 0.05 0.00 92 1020.1
20260830091402 46 200 0.0 0.0 0.00 0.05 0.00 92 1020.1
20260830090903 46 209 0.0 0.0 0.00 0.05 0.00 92 1020.2
20260830090403 47 209 0.0 0.0 0.00 0.05 0.00 92 1020.2
20260830085902 47 209 0.0 0.0 0.00 0.05 0.00 91 1020.1
20260830085403 47 209 0.0 0.0 0.00 0.05 0.00 91 1020.2
20260830084903 47 209 0.0 0.0 0.00 0.05 0.00 92 1020.2
20260830084402 47 209 0.0 0.0 0.00 0.05 0.00 91 1020.2
20260830083903 47 208 0.0 0.0 0.00 0.05 0.00 91 1020.3
20260830083403 47 208 0.0 0.0 0.00 0.05 0.00 91 1020.3
20260830082903 47 208 0.0 0.0 0.00 0.05 0.00 91 1020.3
20260830082403 47 208 0.0 0.0 0.00 0.05 0.00 91 1020.2
20260830081903 47 208 0.0 0.0 0.00 0.05 0.00 90 1020.2
20260830081402 47 208 0.0 0.0 0.00 0.05 0.00 90 1020.1
20260830080902 48 208 0.0 0.0 0.00 0.05 0.00 90 1020.1
20260830080403 48 208 0.0 0.0 0.00 0.05 0.00 90 1020.1
20260830075903 48 208 0.0 0.0 0.00 0.05 0.00 89 1020.1
20260830075403 48 208 0.0 0.0 0.00 0.05 0.00 89 1020.1
20260830074903 48 208 0.0 0.0 0.00 0.05 0.00 89 1020.1
20260830074403 48 208 0.0 0.0 0.00 0.05 0.00 89 1020.2
20260830072403 49 207 0.0 0.0 0.00 0.05 0.00 88 1020.1
20260830071903 49 207 0.0 0.0 0.00 0.05 0.00 87 1020.2
20260830071403 49 207 0.0 0.0 0.00 0.05 0.00 86 1020.1
20260830070902 50 207 0.0 0.0 0.00 0.05 0.00 86 1020.1
20260830070402 50 205 0.0 0.0 0.00 0.05 0.00 85 1020.1
20260830065403 51 204 0.0 0.0 0.00 0.05 0.05 86 1020.1
20260830064903 51 202 0.0 0.0 0.00 0.05 0.05 84 1020.1
20260830064402 51 196 0.0 0.0 0.00 0.05 0.05 83 1020.1
20260830063403 52 188 0.0 0.0 0.00 0.05 0.05 83 1020.1
20260830062903 52 195 0.0 0.0 0.00 0.05 0.05 83 1020.1
20260830062403 52 196 0.0 0.0 0.00 0.05 0.05 83 1020.1
20260830061403 53 196 0.0 0.0 0.00 0.05 0.05 81 1020.1
20260830060903 53 203 0.0 0.0 0.00 0.05 0.05 80 1020.1
20260830060403 53 206 0.0 0.0 0.00 0.05 0.05 80 1020.2
20260830055903 54 207 0.0 0.0 0.00 0.05 0.05 79 1020.1
20260830055402 54 207 0.0 0.0 0.00 0.05 0.05 80 1020.1
20260830054903 54 203 0.0 0.0 0.00 0.05 0.05 78 1020.1
20260830054402 55 203 0.0 0.0 0.00 0.05 0.05 78 1020.1
20260830053402 55 202 0.0 0.0 0.00 0.05 0.05 76 1020.0
20260830052902 56 202 0.0 0.0 0.00 0.05 0.05 75 1020.0
20260830052402 56 202 0.0 0.0 0.00 0.05 0.05 76 1019.9
20260830051903 56 202 0.0 0.0 0.00 0.05 0.05 75 1019.9
20260830050903 56 203 0.0 0.0 0.00 0.05 0.05 73 1020.0
20260830050403 56 204 0.0 0.0 0.00 0.05 0.05 73 1019.9
20260830045903 57 205 0.0 0.0 0.00 0.05 0.05 72 1019.9
20260830045403 57 209 0.0 0.0 0.00 0.05 0.05 72 1019.9
20260830044902 57 208 0.0 0.0 0.00 0.05 0.05 71 1019.8
20260830044403 58 218 0.0 0.0 0.00 0.05 0.05 70 1019.8
20260830043903 58 218 0.0 0.0 0.00 0.05 0.05 70 1019.8
20260830043403 58 218 0.0 0.0 0.00 0.05 0.05 69 1019.8
20260830042902 59 218 0.0 0.0 0.00 0.05 0.05 68 1019.7
20260830042402 59 211 0.0 1.0 0.00 0.05 0.05 68 1019.7
20260830041903 59 217 0.0 1.0 0.00 0.05 0.05 67 1019.6
20260830041403 60 219 0.0 1.0 0.00 0.05 0.05 67 1019.6
20260830040402 60 232 0.0 2.0 0.00 0.05 0.05 65 1019.5
20260830035903 60 218 0.0 2.0 0.00 0.05 0.05 65 1019.4
20260830034902 61 275 0.0 3.0 0.00 0.05 0.05 64 1019.4
20260830033903 61 236 1.0 3.0 0.00 0.05 0.05 63 1019.3
20260830033403 62 264 0.0 2.0 0.00 0.05 0.05 62 1019.2
20260830032903 62 288 0.0 2.0 0.00 0.05 0.05 61 1019.1
20260830032403 62 269 0.0 3.0 0.00 0.05 0.05 61 1019.1
20260830031903 63 253 0.0 3.0 0.00 0.05 0.05 60 1019.0
20260830031403 63 286 1.0 3.0 0.00 0.05 0.05 59 1019.0
20260830030903 63 288 0.0 2.0 0.00 0.05 0.05 59 1018.9
20260830030403 63 216 0.0 5.0 0.00 0.05 0.05 58 1018.9
20260830025902 64 313 0.0 5.0 0.00 0.05 0.05 58 1018.8
20260830024904 64 290 0.0 6.0 0.00 0.05 0.05 56 1018.8
20260830024403 65 318 1.0 5.0 0.00 0.05 0.05 56 1018.8
20260830023902 65 200 0.0 5.0 0.00 0.05 0.05 56 1018.7
20260830023403 65 248 1.0 7.0 0.00 0.05 0.05 56 1018.8
20260830022902 65 148 0.0 7.0 0.00 0.05 0.05 55 1018.7
20260830022403 66 45 1.0 5.0 0.00 0.05 0.05 55 1018.6
20260830021902 66 291 1.0 5.0 0.00 0.05 0.05 54 1018.6
20260830021403 66 239 1.0 5.0 0.00 0.05 0.05 54 1018.5
20260830020902 66 183 0.0 7.0 0.00 0.05 0.05 54 1018.5
20260830015903 67 14 0.0 2.0 0.00 0.05 0.05 54 1018.5
20260830015403 67 0 1.0 6.0 0.00 0.05 0.05 54 1018.5
20260830014903 67 0 2.0 8.0 0.00 0.05 0.05 53 1018.5